• Join FlightAware (Why Join?)
  • Login
  • US Flag 
06:41AM EST


 

Airport Tracker/Info


-or-


 

Live Flight TrackerFlight Track Log ✈ DAL1105 ✈ 13-Oct-2013 ✈ KSLC - PHNL

Flight Track Log - Related Links

Times and Time Zones

All times are in EDT time to prevent confusion due to time zone crossing. See the DAL1105 flight status page for this flight to view local times or setup timezone preferences in your user account.

Time Position Orientation Groundspeed Altitude Reporting Facility
EDT Latitude Longitude Course Direction KTS MPH feet Rate Location/Type
02:07PM 40.8133 -112.0025 270° West 186 214 5,100  Level Salt Lake Center
02:08PM 40.8542 -112.0908 301° West 242 278 7,500 1,732 Climbing Salt Lake Center
02:08PM 40.8589 -112.1042 295° West 238 274 7,900 2,100 Climbing Salt Lake Center
02:10PM 40.7098 -112.4416 270° West  Level Estimated
02:10PM 40.8883 -112.2017 292° West 280 322 10,300  Level Salt Lake Center
02:11PM 40.6832 -112.5959 270° West  Level Estimated
02:11PM 40.8808 -112.3275 266° West 284 327 13,200  Level Salt Lake Center
02:12PM 40.6563 -112.7502 270° West  Level Estimated
02:12PM 40.8728 -112.4344 264° West 294 338 15,000  Level Salt Lake Center
02:13PM 40.8664 -112.5447 266° West 303 349 15,100 1,452 Climbing Salt Lake Center
02:14PM 40.8561 -112.6625 263° West 321 369 18,000 2,371 Climbing Salt Lake Center
02:15PM 40.8461 -112.7800 264° West 325 374 20,000 2,081 Climbing Salt Lake Center
02:16PM 40.8414 -112.9022 267° West 334 384 22,300 2,226 Climbing Salt Lake Center
02:17PM 40.8425 -113.0533 271° West 343 395 24,600 1,935 Climbing Salt Lake Center
02:18PM 40.8428 -113.1833 270° West 354 407 26,300 1,597 Climbing Salt Lake Center
02:19PM 40.8439 -113.3169 271° West 364 419 27,900 1,306 Climbing Salt Lake Center
02:20PM 40.8433 -113.4553 270° West 375 432 29,000 1,210 Climbing Salt Lake Center
02:21PM 40.8431 -113.5972 270° West 384 442 30,400 1,210 Climbing Salt Lake Center
02:22PM 40.8433 -113.7431 270° West 393 452 31,500 968 Climbing Salt Lake Center
02:23PM 40.8414 -113.8925 269° West 405 466 32,400 1,016 Climbing Salt Lake Center
02:24PM 40.8414 -114.0783 270° West 419 482 33,600 774 Climbing Salt Lake Center
02:25PM 40.8397 -114.2361 269° West 428 493 34,000 194 Climbing Salt Lake Center
02:26PM 40.8394 -114.3978 270° West 437 503 34,000  Level Salt Lake Center
02:27PM 40.8378 -114.5722 269° West 438 504 34,000  Level Salt Lake Center
02:28PM 40.8350 -114.7258 269° West 436 502 34,000  Level Salt Lake Center
02:29PM 40.8208 -114.9031 264° West 436 502 34,000  Level Salt Lake Center
02:30PM 40.8006 -115.0522 260° West 434 499 34,000  Level Salt Lake Center
02:31PM 40.7794 -115.2036 260° West 437 503 34,000  Level Salt Lake Center
02:32PM 40.7586 -115.3825 261° West 442 509 34,000  Level Salt Lake Center
02:33PM 40.7414 -115.5364 262° West 443 510 34,000  Level Salt Lake Center
02:34PM 40.7222 -115.7153 262° West 443 510 34,000  Level Salt Lake Center
02:35PM 40.7039 -115.8697 261° West 445 512 34,000  Level Salt Lake Center
02:36PM 40.6811 -116.0489 261° West 444 511 34,000  Level Salt Lake Center
02:37PM 40.6614 -116.2031 260° West 446 513 34,000  Level Salt Lake Center
02:38PM 40.6381 -116.3839 260° West 448 516 34,000  Level Salt Lake Center
02:39PM 40.6181 -116.5400 260° West 451 519 34,000  Level Salt Lake Center
02:40PM 40.5947 -116.7222 260° West 455 524 34,000  Level Salt Lake Center
02:42PM 40.5747 -116.8772 260° West 455 524 34,000  Level Salt Lake Center
02:43PM 40.5347 -117.0556 254° West 464 534 34,000  Level Salt Lake Center
02:44PM 40.4942 -117.2100 251° West 470 541 34,000  Level Salt Lake Center
02:45PM 40.4458 -117.3894 251° West 470 541 34,000  Level Salt Lake Center
02:46PM 40.4044 -117.5439 251° West 470 541 34,000  Level Salt Lake Center
02:47PM 40.3564 -117.7253 251° West 471 542 34,000  Level Salt Lake Center
02:48PM 40.3142 -117.8794 250° West 471 542 34,000  Level Salt Lake Center
02:48PM 40.2950 -117.9547 252° West 470 541 34,000  Level Oakland Center
02:49PM 40.2531 -118.1144 251° West 468 539 34,000  Level Oakland Center
02:50PM 40.2017 -118.3061 251° West 467 537 34,000  Level Oakland Center
02:51PM 40.1458 -118.4617 245° Southwest 473 544 34,000  Level Oakland Center
02:52PM 40.0869 -118.6183 244° Southwest 481 554 34,000  Level Oakland Center
02:53PM 40.0275 -118.7756 244° Southwest 485 558 34,000  Level Oakland Center
02:54PM 39.9667 -118.9297 243° Southwest 482 555 34,000  Level Oakland Center
02:55PM 39.9075 -119.0853 244° Southwest 483 556 34,000  Level Oakland Center
02:56PM 39.8467 -119.2411 243° Southwest 486 559 34,000  Level Oakland Center
02:57PM 39.7736 -119.4292 243° Southwest 488 562 34,000  Level Oakland Center
02:58PM 39.7119 -119.5856 243° Southwest 489 563 34,000  Level Oakland Center
03:00PM 39.6511 -119.7419 243° Southwest 487 560 34,000  Level Oakland Center
03:01PM 39.5886 -119.8994 243° Southwest 492 566 34,000  Level Oakland Center
03:02PM 39.5258 -120.0544 242° Southwest 489 563 34,000  Level Oakland Center
03:03PM 39.4597 -120.2228 243° Southwest 481 554 34,000  Level Oakland Center
03:04PM 39.3981 -120.3769 243° Southwest 483 556 34,000  Level Oakland Center
03:05PM 39.3372 -120.5281 243° Southwest 477 549 34,000  Level Oakland Center
03:06PM 39.2764 -120.6778 242° Southwest 474 545 34,000  Level Oakland Center
03:07PM 39.2156 -120.8250 242° Southwest 469 540 34,000  Level Oakland Center
03:08PM 39.1439 -121.0019 242° Southwest 468 539 34,000  Level Oakland Center
03:09PM 39.0833 -121.1481 242° Southwest 466 536 34,000  Level Oakland Center
03:10PM 39.0236 -121.2922 242° Southwest 461 531 34,000  Level Oakland Center
03:11PM 38.9642 -121.4369 242° Southwest 461 531 34,000  Level Oakland Center
03:12PM 38.9047 -121.5808 242° Southwest 461 531 34,000  Level Oakland Center
03:13PM 38.8442 -121.7228 241° Southwest 459 528 34,000  Level Oakland Center
03:14PM 38.7722 -121.8931 242° Southwest 456 525 34,000  Level Oakland Center
03:15PM 38.7114 -122.0347 241° Southwest 456 525 34,000  Level Oakland Center
03:16PM 38.6553 -122.1664 241° Southwest 455 524 34,000  Level Oakland Center
03:17PM 38.5953 -122.3067 241° Southwest 454 522 34,000  Level Oakland Center
03:18PM 38.5350 -122.4481 241° Southwest 455 524 34,000  Level Oakland Center
03:19PM 38.4628 -122.6158 241° Southwest 454 522 34,000  Level Oakland Center
03:20PM 38.4025 -122.7542 241° Southwest 451 519 34,000  Level Oakland Center
03:21PM 38.3414 -122.8925 241° Southwest 453 521 34,000  Level Oakland Center
03:22PM 38.2803 -123.0317 241° Southwest 453 521 34,000  Level Oakland Center
03:23PM 38.2189 -123.1697 241° Southwest 454 522 34,000  Level Oakland Center
03:24PM 38.1489 -123.3344 242° Southwest 450 518 34,000  Level Oakland Center
03:25PM 38.0847 -123.4736 240° Southwest 456 525 34,000  Level Oakland Center
03:26PM 38.0233 -123.6119 241° Southwest 453 521 34,000  Level Oakland Center
03:27PM 37.9608 -123.7503 240° Southwest 454 522 34,000  Level Oakland Center
03:28PM 37.8986 -123.8878 240° Southwest 452 520 34,000  Level Oakland Center
03:29PM 37.8381 -124.0256 241° Southwest 450 518 34,000  Level Oakland Center
03:30PM 37.7783 -124.1628 241° Southwest 448 516 34,000  Level Oakland Center
03:31PM 37.7033 -124.3256 240° Southwest 448 516 34,000  Level Oakland Center
03:32PM 37.6397 -124.4622 240° Southwest 452 520 34,000  Level Oakland Center
03:33PM 37.5769 -124.5981 240° Southwest 451 519 34,000  Level Oakland Center
03:34PM 37.5158 -124.7336 240° Southwest 449 517 34,000  Level Oakland Center
03:35PM 37.4531 -124.8692 240° Southwest 448 516 34,000  Level Oakland Center
03:36PM 37.3900 -125.0050 240° Southwest 451 519 34,000  Level Oakland Center
03:38PM 37.3269 -125.1386 239° Southwest 450 518 34,000  Level Oakland Center
03:39PM 37.2506 -125.3000 239° Southwest 448 516 34,000  Level Oakland Center
03:40PM 37.1872 -125.4344 239° Southwest 450 518 34,000  Level Oakland Center
03:41PM 37.1236 -125.5689 239° Southwest 450 518 34,000  Level Oakland Center
03:42PM 37.0589 -125.7031 239° Southwest 451 519 34,000  Level Oakland Center
03:43PM 36.9958 -125.8394 240° Southwest 453 521 34,000  Level Oakland Center
03:44PM 36.9308 -125.9731 239° Southwest 451 519 34,000  Level Oakland Center
03:45PM 36.8664 -126.1067 239° Southwest 451 519 34,000  Level Oakland Center
03:46PM 36.7883 -126.2683 239° Southwest 452 520 34,000  Level Oakland Center
03:47PM 36.7236 -126.4031 239° Southwest 454 522 34,000  Level Oakland Center
03:48PM 36.6581 -126.5350 238° Southwest 450 518 34,000  Level Oakland Center
03:49PM 36.5928 -126.6689 239° Southwest 451 519 34,000 -48 Level Oakland Center
03:50PM 36.5283 -126.8036 239° Southwest 453 521 33,900  Descending Oakland Center
03:52PM 36.4213 -127.0155 250° West  Level FlightAware Approximate
03:59PM 36.1272 -128.0091 250° West  Level FlightAware Approximate
04:00PM 36.0845 -128.1505 250° West  Level FlightAware Approximate
04:01PM 36.0417 -128.2917 249° West  Level FlightAware Approximate
04:02PM 35.9987 -128.4327 249° West  Level FlightAware Approximate
04:03PM 35.9555 -128.5736 249° West  Level FlightAware Approximate
04:04PM 35.9122 -128.7143 249° West  Level FlightAware Approximate
04:05PM 35.8687 -128.8549 249° West  Level FlightAware Approximate
04:06PM 35.8250 -128.9953 249° West  Level FlightAware Approximate
04:07PM 35.7816 -129.1343 249° West  Level FlightAware Approximate
04:07PM 36.4667 -126.9333 250° West 444 511 34,000  Level Oakland Oceanic (ODAPS)
04:08PM 35.7379 -129.2731 249° West  Level FlightAware Approximate
04:09PM 35.6942 -129.4118 249° West  Level FlightAware Approximate
04:10PM 35.6503 -129.5504 249° West  Level FlightAware Approximate
04:11PM 35.6062 -129.6887 249° West  Level FlightAware Approximate
04:12PM 35.5620 -129.8270 249° West  Level FlightAware Approximate
04:13PM 35.5049 -130.0664 248° West 444 511 34,000  Level FlightAware Transoceanic
04:14PM 35.4593 -130.2070 248° West 444 511 34,000  Level FlightAware Transoceanic
04:15PM 35.4135 -130.3474 248° West 444 511 34,000  Level FlightAware Transoceanic
04:16PM 35.3675 -130.4877 248° West 444 511 34,000  Level FlightAware Transoceanic
04:17PM 35.3214 -130.6278 248° West 444 511 34,000  Level FlightAware Transoceanic
04:18PM 35.2751 -130.7677 248° West 444 511 34,000  Level FlightAware Transoceanic
04:19PM 35.2287 -130.9075 248° West 444 511 34,000  Level FlightAware Transoceanic
04:20PM 35.1821 -131.0471 248° West 444 511 34,000  Level FlightAware Transoceanic
04:21PM 35.1353 -131.1866 248° West 444 511 34,000  Level FlightAware Transoceanic
04:22PM 35.0884 -131.3259 248° West 444 511 34,000  Level FlightAware Transoceanic
04:23PM 35.0413 -131.4651 248° West 444 511 34,000  Level FlightAware Transoceanic
04:24PM 34.9941 -131.6040 247° West 444 511 34,000  Level FlightAware Transoceanic
04:25PM 34.9467 -131.7429 247° West 444 511 34,000  Level FlightAware Transoceanic
04:26PM 34.8991 -131.8815 247° West 444 511 34,000  Level FlightAware Transoceanic
04:27PM 34.8514 -132.0201 247° West 444 511 34,000  Level FlightAware Transoceanic
04:28PM 34.8035 -132.1584 247° West 444 511 34,000  Level FlightAware Transoceanic
04:29PM 34.7555 -132.2966 247° West 444 511 34,000  Level FlightAware Transoceanic
04:30PM 34.7073 -132.4346 247° West 444 511 34,000  Level FlightAware Transoceanic
04:31PM 34.6590 -132.5725 247° West 444 511 34,000  Level FlightAware Transoceanic
04:32PM 34.6105 -132.7102 247° West 444 511 34,000  Level FlightAware Transoceanic
04:33PM 34.5619 -132.8477 247° West 444 511 34,000  Level FlightAware Transoceanic
04:34PM 34.5130 -132.9851 247° West 444 511 34,000  Level FlightAware Transoceanic
04:35PM 34.4641 -133.1223 247° West 444 511 34,000  Level FlightAware Transoceanic
04:36PM 34.4150 -133.2594 246° West 444 511 34,000  Level FlightAware Transoceanic
04:37PM 34.3657 -133.3963 246° West 444 511 34,000  Level FlightAware Transoceanic
04:38PM 34.3163 -133.5330 246° West 444 511 34,000  Level FlightAware Transoceanic
04:39PM 34.2668 -133.6696 246° West 444 511 34,000  Level FlightAware Transoceanic
04:40PM 34.2170 -133.8060 246° West 444 511 34,000  Level FlightAware Transoceanic
04:41PM 34.1672 -133.9422 246° West 444 511 34,000  Level FlightAware Transoceanic
04:42PM 34.1171 -134.0783 246° West 444 511 34,000  Level FlightAware Transoceanic
04:43PM 34.0670 -134.2142 246° West 444 511 34,000  Level FlightAware Transoceanic
04:44PM 34.0167 -134.3500 246° West 444 511 34,000  Level FlightAware Transoceanic
04:45PM 33.9659 -134.4875 246° West 444 511 34,000  Level FlightAware Transoceanic
04:46PM 33.9149 -134.6248 246° West 444 511 34,000  Level FlightAware Transoceanic
04:46PM 34.0167 -134.3500 246° West 442 509 34,000  Level Oakland Oceanic (ODAPS)
04:47PM 33.8638 -134.7620 246° West 444 511 34,000  Level FlightAware Transoceanic
04:48PM 33.8126 -134.8990 246° West 444 511 34,000  Level FlightAware Transoceanic
04:49PM 33.7612 -135.0358 246° West 444 511 34,000  Level FlightAware Transoceanic
04:50PM 33.7096 -135.1725 246° West 444 511 34,000  Level FlightAware Transoceanic
04:51PM 33.6579 -135.3090 245° Southwest 444 511 34,000  Level FlightAware Transoceanic
04:52PM 33.5629 -135.5584 245° Southwest 442 509 34,000  Level FlightAware Transoceanic
04:53PM 33.5118 -135.6919 245° Southwest 442 509 34,000  Level FlightAware Transoceanic
04:54PM 33.4605 -135.8252 245° Southwest 442 509 34,000  Level FlightAware Transoceanic
04:55PM 33.4091 -135.9584 245° Southwest 442 509 34,000  Level FlightAware Transoceanic
04:56PM 33.3575 -136.0914 245° Southwest 442 509 34,000  Level FlightAware Transoceanic
04:57PM 33.3058 -136.2242 245° Southwest 442 509 34,000  Level FlightAware Transoceanic
04:58PM 33.2539 -136.3569 245° Southwest 442 509 34,000  Level FlightAware Transoceanic
04:59PM 33.2019 -136.4895 245° Southwest 442 509 34,000  Level FlightAware Transoceanic
05:00PM 33.1498 -136.6218 245° Southwest 442 509 34,000  Level FlightAware Transoceanic
05:01PM 33.0975 -136.7541 245° Southwest 442 509 34,000  Level FlightAware Transoceanic
05:02PM 33.0451 -136.8861 245° Southwest 442 509 34,000  Level FlightAware Transoceanic
05:03PM 32.9926 -137.0180 245° Southwest 442 509 34,000  Level FlightAware Transoceanic
05:04PM 32.9399 -137.1498 244° Southwest 442 509 34,000  Level FlightAware Transoceanic
05:05PM 32.8871 -137.2814 244° Southwest 442 509 34,000  Level FlightAware Transoceanic
05:06PM 32.8341 -137.4128 244° Southwest 442 509 34,000  Level FlightAware Transoceanic
05:07PM 32.7810 -137.5441 244° Southwest 442 509 34,000  Level FlightAware Transoceanic
05:08PM 32.7277 -137.6752 244° Southwest 442 509 34,000  Level FlightAware Transoceanic
05:09PM 32.6744 -137.8061 244° Southwest 442 509 34,000  Level FlightAware Transoceanic
05:10PM 32.6209 -137.9369 244° Southwest 442 509 34,000  Level FlightAware Transoceanic
05:11PM 32.5672 -138.0676 244° Southwest 442 509 34,000  Level FlightAware Transoceanic
05:12PM 32.5134 -138.1981 244° Southwest 442 509 34,000  Level FlightAware Transoceanic
05:13PM 32.4595 -138.3284 244° Southwest 442 509 34,000  Level FlightAware Transoceanic
05:14PM 32.4055 -138.4586 244° Southwest 442 509 34,000  Level FlightAware Transoceanic
05:15PM 32.3513 -138.5886 244° Southwest 442 509 34,000  Level FlightAware Transoceanic
05:16PM 32.2970 -138.7185 244° Southwest 442 509 34,000  Level FlightAware Transoceanic
05:17PM 32.2425 -138.8482 244° Southwest 442 509 34,000  Level FlightAware Transoceanic
05:18PM 32.1879 -138.9778 243° Southwest 442 509 34,000  Level FlightAware Transoceanic
05:19PM 32.1332 -139.1072 243° Southwest 442 509 34,000  Level FlightAware Transoceanic
05:20PM 32.0784 -139.2364 243° Southwest 442 509 34,000  Level FlightAware Transoceanic
05:21PM 32.0234 -139.3655 243° Southwest 442 509 34,000  Level FlightAware Transoceanic
05:22PM 31.9683 -139.4944 243° Southwest 442 509 34,000  Level FlightAware Transoceanic
05:23PM 31.9131 -139.6232 243° Southwest 442 509 34,000  Level FlightAware Transoceanic
05:24PM 31.8577 -139.7518 243° Southwest 442 509 34,000  Level FlightAware Transoceanic
05:25PM 31.8022 -139.8803 243° Southwest 442 509 34,000  Level FlightAware Transoceanic
05:26PM 31.7466 -140.0086 243° Southwest 442 509 34,000  Level FlightAware Transoceanic
05:27PM 31.6908 -140.1368 243° Southwest 442 509 34,000  Level FlightAware Transoceanic
05:28PM 31.6349 -140.2648 243° Southwest 442 509 34,000  Level FlightAware Transoceanic
05:29PM 31.5789 -140.3927 243° Southwest 442 509 34,000  Level FlightAware Transoceanic
05:30PM 31.5228 -140.5204 243° Southwest 442 509 34,000  Level FlightAware Transoceanic
05:31PM 31.4665 -140.6479 243° Southwest 442 509 34,000  Level FlightAware Transoceanic
05:32PM 31.4101 -140.7753 243° Southwest 442 509 34,000  Level FlightAware Transoceanic
05:33PM 31.3536 -140.9025 242° Southwest 442 509 34,000  Level FlightAware Transoceanic
05:34PM 31.2970 -141.0296 242° Southwest 442 509 34,000  Level FlightAware Transoceanic
05:35PM 31.2402 -141.1566 242° Southwest 442 509 34,000  Level FlightAware Transoceanic
05:36PM 31.1833 -141.2833 242° Southwest 442 509 34,000  Level FlightAware Transoceanic
05:37PM 31.1257 -141.4111 242° Southwest 442 509 34,000  Level FlightAware Transoceanic
05:38PM 31.0679 -141.5387 242° Southwest 442 509 34,000  Level FlightAware Transoceanic
05:39PM 31.0100 -141.6662 242° Southwest 442 509 34,000  Level FlightAware Transoceanic
05:40PM 30.9519 -141.7935 242° Southwest 442 509 34,000  Level FlightAware Transoceanic
05:41PM 30.8938 -141.9207 242° Southwest 442 509 34,000 1,765 Level FlightAware Transoceanic
05:41PM 31.1833 -141.2833 242° Southwest 429 494 36,000  Climbing Oakland Oceanic (ODAPS)
05:42PM 30.8355 -142.0477 242° Southwest 442 509 34,000 -1,071 Descending FlightAware Transoceanic
05:43PM 30.7771 -142.1745 242° Southwest 442 509 34,000  Level FlightAware Transoceanic
05:44PM 30.7185 -142.3012 242° Southwest 442 509 34,000  Level FlightAware Transoceanic
05:45PM 30.6599 -142.4277 242° Southwest 442 509 34,000  Level FlightAware Transoceanic
05:46PM 30.6011 -142.5541 242° Southwest 442 509 34,000 1,000 Level FlightAware Transoceanic
05:47PM 30.5653 -142.6308 242° Southwest 429 494 36,000 1,000 Climbing FlightAware Transoceanic
05:48PM 30.5085 -142.7524 241° Southwest 429 494 36,000  Level FlightAware Transoceanic
05:49PM 30.4515 -142.8739 241° Southwest 429 494 36,000  Level FlightAware Transoceanic
05:50PM 30.3944 -142.9952 241° Southwest 429 494 36,000  Level FlightAware Transoceanic
05:51PM 30.3372 -143.1165 241° Southwest 429 494 36,000  Level FlightAware Transoceanic
05:52PM 30.2799 -143.2375 241° Southwest 429 494 36,000  Level FlightAware Transoceanic
05:53PM 30.2225 -143.3584 241° Southwest 429 494 36,000  Level FlightAware Transoceanic
05:54PM 30.1649 -143.4792 241° Southwest 429 494 36,000  Level FlightAware Transoceanic
05:55PM 30.1073 -143.5999 241° Southwest 429 494 36,000  Level FlightAware Transoceanic
05:56PM 30.0495 -143.7204 241° Southwest 429 494 36,000  Level FlightAware Transoceanic
05:57PM 29.9916 -143.8407 241° Southwest 429 494 36,000  Level FlightAware Transoceanic
05:58PM 29.9336 -143.9610 241° Southwest 429 494 36,000  Level FlightAware Transoceanic
05:59PM 29.8756 -144.0810 241° Southwest 429 494 36,000  Level FlightAware Transoceanic
06:00PM 29.8174 -144.2010 241° Southwest 429 494 36,000  Level FlightAware Transoceanic
06:01PM 29.7591 -144.3208 241° Southwest 429 494 36,000  Level FlightAware Transoceanic
06:02PM 29.7006 -144.4404 241° Southwest 429 494 36,000  Level FlightAware Transoceanic
06:03PM 29.6421 -144.5600 241° Southwest 429 494 36,000  Level FlightAware Transoceanic
06:04PM 29.5835 -144.6793 241° Southwest 429 494 36,000  Level FlightAware Transoceanic
06:05PM 29.5248 -144.7986 240° Southwest 429 494 36,000  Level FlightAware Transoceanic
06:06PM 29.4659 -144.9177 240° Southwest 429 494 36,000  Level FlightAware Transoceanic
06:07PM 29.4070 -145.0367 240° Southwest 429 494 36,000  Level FlightAware Transoceanic
06:08PM 29.3479 -145.1555 240° Southwest 429 494 36,000  Level FlightAware Transoceanic
06:09PM 29.2888 -145.2742 240° Southwest 429 494 36,000  Level FlightAware Transoceanic
06:10PM 29.2295 -145.3927 240° Southwest 429 494 36,000  Level FlightAware Transoceanic
06:11PM 29.1701 -145.5112 240° Southwest 429 494 36,000  Level FlightAware Transoceanic
06:12PM 29.1107 -145.6294 240° Southwest 429 494 36,000  Level FlightAware Transoceanic
06:13PM 29.0511 -145.7476 240° Southwest 429 494 36,000  Level FlightAware Transoceanic
06:14PM 28.9914 -145.8656 240° Southwest 429 494 36,000  Level FlightAware Transoceanic
06:15PM 28.9316 -145.9834 240° Southwest 429 494 36,000  Level FlightAware Transoceanic
06:16PM 28.8718 -146.1012 240° Southwest 429 494 36,000  Level FlightAware Transoceanic
06:17PM 28.8118 -146.2188 240° Southwest 429 494 36,000  Level FlightAware Transoceanic
06:18PM 28.7517 -146.3362 240° Southwest 429 494 36,000  Level FlightAware Transoceanic
06:19PM 28.6915 -146.4536 240° Southwest 429 494 36,000  Level FlightAware Transoceanic
06:20PM 28.6312 -146.5708 240° Southwest 429 494 36,000  Level FlightAware Transoceanic
06:21PM 28.5708 -146.6878 240° Southwest 429 494 36,000  Level FlightAware Transoceanic
06:22PM 28.5103 -146.8048 239° Southwest 429 494 36,000  Level FlightAware Transoceanic
06:23PM 28.4498 -146.9216 239° Southwest 429 494 36,000  Level FlightAware Transoceanic
06:24PM 28.3891 -147.0382 239° Southwest 429 494 36,000  Level FlightAware Transoceanic
06:25PM 28.3283 -147.1547 239° Southwest 429 494 36,000  Level FlightAware Transoceanic
06:26PM 28.2674 -147.2711 239° Southwest 429 494 36,000  Level FlightAware Transoceanic
06:27PM 28.2064 -147.3874 239° Southwest 429 494 36,000  Level FlightAware Transoceanic
06:28PM 28.1453 -147.5035 239° Southwest 429 494 36,000  Level FlightAware Transoceanic
06:29PM 28.0841 -147.6195 239° Southwest 429 494 36,000  Level FlightAware Transoceanic
06:30PM 28.0229 -147.7353 239° Southwest 429 494 36,000  Level FlightAware Transoceanic
06:31PM 27.9615 -147.8511 239° Southwest 429 494 36,000  Level FlightAware Transoceanic
06:32PM 27.9000 -147.9667 239° Southwest 429 494 36,000  Level FlightAware Transoceanic
06:33PM 27.8359 -148.0866 239° Southwest 429 494 36,000  Level FlightAware Transoceanic
06:34PM 27.7717 -148.2064 239° Southwest 429 494 36,000  Level FlightAware Transoceanic
06:34PM 27.9000 -147.9667 239° Southwest 437 503 36,000  Level Oakland Oceanic (ODAPS)
06:35PM 27.7074 -148.3261 239° Southwest 429 494 36,000  Level FlightAware Transoceanic
06:36PM 27.6430 -148.4456 239° Southwest 429 494 36,000  Level FlightAware Transoceanic
06:37PM 27.5785 -148.5650 239° Southwest 429 494 36,000  Level FlightAware Transoceanic
06:38PM 27.5138 -148.6843 239° Southwest 429 494 36,000  Level FlightAware Transoceanic
06:39PM 27.4491 -148.8034 238° Southwest 429 494 36,000  Level FlightAware Transoceanic
06:40PM 27.4574 -148.7883 238° Southwest 437 503 36,000  Level FlightAware Transoceanic
06:41PM 27.3937 -148.9051 238° Southwest 437 503 36,000  Level FlightAware Transoceanic
06:42PM 27.3300 -149.0218 238° Southwest 437 503 36,000  Level FlightAware Transoceanic
06:43PM 27.2662 -149.1383 238° Southwest 437 503 36,000  Level FlightAware Transoceanic
06:44PM 27.2023 -149.2548 238° Southwest 437 503 36,000  Level FlightAware Transoceanic
06:45PM 27.1383 -149.3711 238° Southwest 437 503 36,000  Level FlightAware Transoceanic
06:46PM 27.0742 -149.4872 238° Southwest 437 503 36,000  Level FlightAware Transoceanic
06:47PM 27.0100 -149.6032 238° Southwest 437 503 36,000  Level FlightAware Transoceanic
06:48PM 26.9457 -149.7191 238° Southwest 437 503 36,000  Level FlightAware Transoceanic
06:49PM 26.8813 -149.8349 238° Southwest 437 503 36,000  Level FlightAware Transoceanic
06:50PM 26.8168 -149.9505 238° Southwest 437 503 36,000  Level FlightAware Transoceanic
06:51PM 26.7522 -150.0660 238° Southwest 437 503 36,000  Level FlightAware Transoceanic
06:52PM 26.6875 -150.1814 238° Southwest 437 503 36,000  Level FlightAware Transoceanic
06:53PM 26.6227 -150.2966 238° Southwest 437 503 36,000  Level FlightAware Transoceanic
06:54PM 26.5579 -150.4117 238° Southwest 437 503 36,000  Level FlightAware Transoceanic
06:55PM 26.4929 -150.5267 238° Southwest 437 503 36,000  Level FlightAware Transoceanic
06:56PM 26.4279 -150.6416 238° Southwest 437 503 36,000  Level FlightAware Transoceanic
06:57PM 26.3627 -150.7563 238° Southwest 437 503 36,000  Level FlightAware Transoceanic
06:58PM 26.2975 -150.8708 238° Southwest 437 503 36,000  Level FlightAware Transoceanic
06:59PM 26.2322 -150.9853 238° Southwest 437 503 36,000  Level FlightAware Transoceanic
07:00PM 26.1668 -151.0996 237° Southwest 437 503 36,000  Level FlightAware Transoceanic
07:01PM 26.1013 -151.2138 237° Southwest 437 503 36,000  Level FlightAware Transoceanic
07:02PM 26.0357 -151.3279 237° Southwest 437 503 36,000  Level FlightAware Transoceanic
07:03PM 25.9700 -151.4418 237° Southwest 437 503 36,000  Level FlightAware Transoceanic
07:04PM 25.9042 -151.5557 237° Southwest 437 503 36,000  Level FlightAware Transoceanic
07:05PM 25.8384 -151.6694 237° Southwest 437 503 36,000  Level FlightAware Transoceanic
07:06PM 25.7724 -151.7829 237° Southwest 437 503 36,000  Level FlightAware Transoceanic
07:07PM 25.7064 -151.8964 237° Southwest 437 503 36,000  Level FlightAware Transoceanic
07:08PM 25.6403 -152.0097 237° Southwest 437 503 36,000  Level FlightAware Transoceanic
07:09PM 25.5741 -152.1229 237° Southwest 437 503 36,000  Level FlightAware Transoceanic
07:10PM 25.5078 -152.2359 237° Southwest 437 503 36,000  Level FlightAware Transoceanic
07:11PM 25.4414 -152.3488 237° Southwest 437 503 36,000  Level FlightAware Transoceanic
07:12PM 25.3749 -152.4617 237° Southwest 437 503 36,000  Level FlightAware Transoceanic
07:13PM 25.3084 -152.5744 237° Southwest 437 503 36,000  Level FlightAware Transoceanic
07:14PM 25.2418 -152.6869 237° Southwest 437 503 36,000  Level FlightAware Transoceanic
07:15PM 25.1750 -152.7993 237° Southwest 437 503 36,000  Level FlightAware Transoceanic
07:16PM 25.1082 -152.9117 237° Southwest 437 503 36,000  Level FlightAware Transoceanic
07:17PM 25.0413 -153.0239 237° Southwest 437 503 36,000  Level FlightAware Transoceanic
07:18PM 24.9743 -153.1359 237° Southwest 437 503 36,000  Level FlightAware Transoceanic
07:19PM 24.9073 -153.2479 237° Southwest 437 503 36,000  Level FlightAware Transoceanic
07:20PM 24.8401 -153.3597 236° Southwest 437 503 36,000  Level FlightAware Transoceanic
07:21PM 24.7729 -153.4714 236° Southwest 437 503 36,000  Level FlightAware Transoceanic
07:22PM 24.7056 -153.5830 236° Southwest 437 503 36,000  Level FlightAware Transoceanic
07:23PM 24.6382 -153.6945 236° Southwest 437 503 36,000  Level FlightAware Transoceanic
07:24PM 24.5707 -153.8058 236° Southwest 437 503 36,000  Level FlightAware Transoceanic
07:25PM 24.5032 -153.9170 236° Southwest 437 503 36,000  Level FlightAware Transoceanic
07:26PM 24.4355 -154.0282 236° Southwest 437 503 36,000  Level FlightAware Transoceanic
07:27PM 24.3678 -154.1391 236° Southwest 437 503 36,000  Level FlightAware Transoceanic
07:28PM 24.3000 -154.2500 236° Southwest 437 503 36,000  Level FlightAware Transoceanic
07:29PM 24.2307 -154.3627 236° Southwest 437 503 36,000  Level FlightAware Transoceanic
07:29PM 24.2333 -154.3667 236° Southwest 430 495 36,000  Level Honolulu Center
07:30PM 24.1613 -154.4753 236° Southwest 437 503 36,000  Level FlightAware Transoceanic
07:30PM 24.1667 -154.4833 238° Southwest 440 506 36,000  Level Honolulu Center
07:31PM 24.0919 -154.5878 236° Southwest 437 503 36,000  Level FlightAware Transoceanic
07:31PM 24.1000 -154.5833 234° Southwest 440 506 36,000  Level Honolulu Center
07:32PM 24.0224 -154.7002 236° Southwest 437 503 36,000  Level FlightAware Transoceanic
07:32PM 24.0167 -154.6833 228° Southwest 450 518 36,000  Level Honolulu Center
07:33PM 23.9527 -154.8124 236° Southwest 437 503 36,000  Level FlightAware Transoceanic
07:33PM 23.9167 -154.7833 222° Southwest 440 506 36,000  Level Honolulu Center
07:34PM 23.8830 -154.9245 236° Southwest 437 503 36,000  Level FlightAware Transoceanic
07:34PM 23.8333 -154.8667 222° Southwest 440 506 36,000  Level Honolulu Center
07:36PM 23.6667 -155.0667 228° Southwest 440 506 36,000  Level Honolulu Center
07:37PM 23.5833 -155.1500 223° Southwest 450 518 36,000  Level Honolulu Center
07:38PM 23.4833 -155.2500 223° Southwest 450 518 36,000  Level Honolulu Center
07:39PM 23.4000 -155.3500 228° Southwest 450 518 36,000  Level Honolulu Center
07:40PM 23.3167 -155.4500 228° Southwest 450 518 36,000  Level Honolulu Center
07:41PM 23.2167 -155.5500 223° Southwest 460 529 36,000  Level Honolulu Center
07:43PM 23.0500 -155.7500 228° Southwest 450 518 36,000  Level Honolulu Center
07:44PM 22.9500 -155.8500 223° Southwest 460 529 36,000  Level Honolulu Center
07:45PM 22.8667 -155.9333 223° Southwest 450 518 36,000  Level Honolulu Center
07:46PM 22.7833 -156.0333 228° Southwest 450 518 36,000  Level Honolulu Center
07:47PM 22.6833 -156.1333 223° Southwest 450 518 36,000  Level Honolulu Center
07:48PM 22.6000 -156.2333 228° Southwest 440 506 36,000  Level Honolulu Center
07:49PM 22.5167 -156.3167 223° Southwest 450 518 36,000  Level Honolulu Center
07:50PM 22.4333 -156.4167 228° Southwest 440 506 36,000 -500 Level Honolulu Center
07:51PM 22.3333 -156.5167 223° Southwest 440 506 35,000 -1,650 Descending Honolulu Center
07:52PM 22.2500 -156.6000 223° Southwest 440 506 32,700 -2,281 Descending Honolulu Center
07:53PM 22.1667 -156.7000 228° Southwest 450 518 30,400 -2,300 Descending Honolulu Center
07:54PM 22.0833 -156.8000 228° Southwest 440 506 28,100 -2,300 Descending Honolulu Center
07:55PM 22.0000 -156.8667 217° Southwest 420 483 25,800 -2,250 Descending Honolulu Center
07:56PM 21.9167 -156.9667 228° Southwest 410 472 23,600 -2,200 Descending Honolulu Center
07:57PM 21.8333 -157.0500 223° Southwest 400 460 21,400 -2,380 Descending Honolulu Center
07:58PM 21.7500 -157.1333 223° Southwest 380 437 18,800 -2,300 Descending Honolulu Center
07:59PM 21.6833 -157.2167 229° Southwest 370 426 16,800 -2,150 Descending Honolulu Center
08:00PM 21.6000 -157.2833 217° Southwest 350 403 14,500 -2,083 Descending Honolulu Center
08:01PM 21.5333 -157.3667 229° Southwest 350 403 12,600 -1,950 Descending Honolulu Center
08:02PM 21.4667 -157.4333 223° Southwest 340 391 10,600 -1,250 Descending Honolulu Center
08:03PM 21.3833 -157.4667 200° South 320 368 10,100 -750 Descending Honolulu Center
08:04PM 21.3167 -157.5167 215° Southwest 280 322 9,100 -1,100 Descending Honolulu Center
08:05PM 21.2333 -157.5500 200° South 280 322 7,900 -942 Descending Honolulu Center
08:06PM 21.1833 -157.5833 212° Southwest 250 288 7,200 -893 Descending Honolulu Center
08:07PM 21.1167 -157.6000 193° South 230 265 6,100 -1,150 Descending Honolulu Center
08:08PM 21.0500 -157.6167 193° South 230 265 4,900 -1,200 Descending Honolulu Center
08:09PM 21.0333 -157.6667 250° West 230 265 3,700 -950 Descending Honolulu Center
08:10PM 21.0833 -157.6833 343° North 220 253 3,000 -350 Descending Honolulu Center
08:11PM 21.1333 -157.7167 328° Northwest 210 242 3,000  Level Honolulu Center
08:12PM 21.1833 -157.7500 328° Northwest 220 253 3,000 -350 Level Honolulu Center
08:13PM 21.2333 -157.8000 317° Northwest 210 242 2,300 -800 Descending Honolulu Center
08:14PM 21.2667 -157.8333 317° Northwest 160 184 1,400 -793 Descending Honolulu Center
08:15PM 21.3000 -157.8667 317° Northwest 140 161 700 -689 Descending Honolulu Center